ANA97 RJTT-RJBB

Flight info

Callsign ANA97
Flight time 0h 52m
Altitude 30000
Route LAXAS Y56 TOHME Y54 KOHWA Y544 DUBKA
Aircraft B789/H-SDE1E2E3FGHIJ2J3J4J5M1RWXY/LB1D1

Departure

Time 2026-02-18 12:01
Airport Tokyo Haneda International Airport (RJTT)

Arrival

Time 2026-02-18 12:54
Airport Kansai International Airport (RJBB)
Time Latitude Longitude Altitude Speed Heading
2026-02-18 11:37 35.55221 139.78913 33 ft 0 kts 243°
2026-02-18 11:50 35.55222 139.78917 33 ft 2 kts 242°
2026-02-18 11:50 35.55231 139.78936 32 ft 3 kts 235°
2026-02-18 11:50 35.55244 139.78956 32 ft 3 kts 224°
2026-02-18 11:51 35.55259 139.78971 33 ft 3 kts 205°
2026-02-18 11:51 35.55277 139.78978 33 ft 3 kts 170°
2026-02-18 11:51 35.55286 139.78975 33 ft 0 kts 150°
2026-02-18 11:55 35.55283 139.78977 33 ft 3 kts 149°
2026-02-18 11:55 35.55238 139.79015 33 ft 13 kts 131°
2026-02-18 11:55 35.55244 139.79132 32 ft 15 kts 61°
2026-02-18 11:55 35.55229 139.79235 32 ft 16 kts 140°
2026-02-18 11:56 35.55105 139.79325 30 ft 25 kts 150°
2026-02-18 11:56 35.54948 139.79438 32 ft 29 kts 149°
2026-02-18 11:56 35.54744 139.79584 31 ft 40 kts 150°
2026-02-18 11:56 35.54499 139.79754 28 ft 34 kts 149°
2026-02-18 11:57 35.54334 139.79871 26 ft 16 kts 151°
2026-02-18 11:57 35.54111 139.80034 26 ft 23 kts 150°
2026-02-18 11:57 35.53952 139.80143 26 ft 27 kts 150°
2026-02-18 11:58 35.53872 139.80259 29 ft 9 kts 75°
2026-02-18 11:58 35.53911 139.80350 33 ft 15 kts 59°
2026-02-18 11:58 35.53929 139.80387 35 ft 0 kts 60°
2026-02-18 11:58 35.53930 139.80388 35 ft 1 kts 60°
2026-02-18 11:59 35.53937 139.80404 36 ft 3 kts 59°
2026-02-18 11:59 35.53960 139.80452 38 ft 11 kts 57°
2026-02-18 11:59 35.54031 139.80466 38 ft 14 kts 333°
2026-02-18 11:59 35.54070 139.80439 37 ft 0 kts 330°
2026-02-18 12:00 35.54088 139.80426 37 ft 9 kts 330°
2026-02-18 12:01 35.54329 139.80255 33 ft 82 kts 329°
2026-02-18 12:01 35.56076 139.79022 155 ft 189 kts 332°
2026-02-18 12:01 35.57187 139.78273 1067 ft 182 kts 333°
2026-02-18 12:02 35.58436 139.78130 1862 ft 185 kts 19°
2026-02-18 12:02 35.59483 139.79180 2301 ft 211 kts 59°
2026-02-18 12:02 35.59703 139.81033 2661 ft 237 kts 102°
2026-02-18 12:02 35.58991 139.82962 3075 ft 260 kts 121°
2026-02-18 12:03 35.58058 139.84901 3864 ft 265 kts 120°
2026-02-18 12:03 35.57221 139.86934 4690 ft 269 kts 115°
2026-02-18 12:03 35.56455 139.89064 5527 ft 275 kts 114°
2026-02-18 12:03 35.55671 139.91212 6567 ft 278 kts 115°
2026-02-18 12:04 35.54689 139.93263 7426 ft 283 kts 136°
2026-02-18 12:04 35.53056 139.94595 8311 ft 285 kts 162°
2026-02-18 12:04 35.51094 139.94877 9163 ft 287 kts 187°
2026-02-18 12:04 35.49113 139.94453 9477 ft 295 kts 191°
2026-02-18 12:05 35.47104 139.93947 10356 ft 294 kts 193°
2026-02-18 12:05 35.43498 139.91017 10781 ft 343 kts 226°
2026-02-18 12:05 35.41849 139.88749 10841 ft 368 kts 229°
2026-02-18 12:06 35.40147 139.86367 11456 ft 372 kts 228°
2026-02-18 12:06 35.38379 139.84030 12069 ft 376 kts 226°
2026-02-18 12:06 35.36572 139.81683 12643 ft 380 kts 227°
2026-02-18 12:06 35.34769 139.79294 13198 ft 384 kts 227°
2026-02-18 12:07 35.32955 139.76865 13727 ft 388 kts 227°
2026-02-18 12:07 35.31094 139.74447 14233 ft 392 kts 223°
2026-02-18 12:07 35.28997 139.72295 14662 ft 396 kts 220°
2026-02-18 12:07 35.26904 139.70093 15157 ft 398 kts 221°
2026-02-18 12:08 35.22664 139.65637 16042 ft 405 kts 220°
2026-02-18 12:08 35.20508 139.63403 16444 ft 408 kts 220°
2026-02-18 12:08 35.18524 139.61337 16793 ft 411 kts 220°
2026-02-18 12:09 35.16354 139.59073 17450 ft 402 kts 224°
2026-02-18 12:09 35.12369 139.54949 19996 ft 364 kts 230°
2026-02-18 12:09 35.10489 139.52850 20276 ft 364 kts 235°
2026-02-18 12:10 35.08904 139.50477 20690 ft 358 kts 243°
2026-02-18 12:10 35.07643 139.47878 21055 ft 355 kts 250°
2026-02-18 12:10 35.06723 139.45097 21390 ft 352 kts 257°
2026-02-18 12:10 35.06144 139.42199 21745 ft 351 kts 263°
2026-02-18 12:11 35.05653 139.39263 22067 ft 354 kts 262°
2026-02-18 12:11 35.05154 139.36311 22412 ft 356 kts 262°
2026-02-18 12:11 35.04660 139.33343 22730 ft 358 kts 263°
2026-02-18 12:11 35.04167 139.30365 23043 ft 360 kts 263°
2026-02-18 12:12 35.03665 139.27366 23322 ft 362 kts 262°
2026-02-18 12:12 35.03157 139.24348 23607 ft 364 kts 263°
2026-02-18 12:12 35.02649 139.21319 23896 ft 365 kts 263°
2026-02-18 12:12 35.02139 139.18275 24169 ft 367 kts 263°
2026-02-18 12:13 35.01626 139.15218 24451 ft 368 kts 263°
2026-02-18 12:13 35.00586 139.09066 24903 ft 373 kts 262°
2026-02-18 12:13 35.00056 139.05925 25164 ft 374 kts 262°
2026-02-18 12:14 34.99529 139.02825 25436 ft 374 kts 262°
2026-02-18 12:14 34.99009 138.99742 25623 ft 377 kts 263°
2026-02-18 12:14 34.98690 138.96543 25870 ft 375 kts 269°
2026-02-18 12:14 34.98531 138.93408 26091 ft 377 kts 269°
2026-02-18 12:15 34.98357 138.90175 26402 ft 376 kts 269°
2026-02-18 12:15 34.98194 138.87038 26720 ft 376 kts 269°
2026-02-18 12:15 34.98031 138.83860 27023 ft 375 kts 269°
2026-02-18 12:15 34.97864 138.80688 27408 ft 374 kts 269°
2026-02-18 12:16 34.97696 138.77534 27781 ft 373 kts 268°
2026-02-18 12:16 34.97528 138.74386 28127 ft 372 kts 268°
2026-02-18 12:16 34.97361 138.71242 28489 ft 371 kts 268°
2026-02-18 12:16 34.97193 138.68107 28841 ft 370 kts 268°
2026-02-18 12:17 34.97024 138.64975 29177 ft 370 kts 268°
2026-02-18 12:17 34.96687 138.58738 29889 ft 370 kts 268°
2026-02-18 12:18 34.96340 138.52443 29891 ft 369 kts 268°
2026-02-18 12:18 34.95997 138.46232 29905 ft 366 kts 268°
2026-02-18 12:19 34.95652 138.40025 29900 ft 368 kts 268°
2026-02-18 12:19 34.95300 138.33811 29891 ft 367 kts 268°
2026-02-18 12:20 34.94948 138.27610 29899 ft 367 kts 268°
2026-02-18 12:20 34.94592 138.21397 29909 ft 368 kts 268°
2026-02-18 12:21 34.94231 138.15164 29924 ft 368 kts 268°
2026-02-18 12:21 34.93685 138.05831 29917 ft 368 kts 268°
2026-02-18 12:22 34.93318 137.99626 29918 ft 367 kts 268°
2026-02-18 12:22 34.93008 137.94449 29926 ft 371 kts 269°
2026-02-18 12:23 34.92632 137.88185 29927 ft 370 kts 269°
2026-02-18 12:23 34.92251 137.81898 29931 ft 370 kts 269°
2026-02-18 12:24 34.91869 137.75659 29946 ft 369 kts 268°
2026-02-18 12:24 34.91461 137.69418 29956 ft 371 kts 265°
2026-02-18 12:25 34.89190 137.60304 29981 ft 378 kts 255°
2026-02-18 12:26 34.87395 137.54299 29979 ft 378 kts 255°
2026-02-18 12:26 34.85605 137.48349 29977 ft 376 kts 255°
2026-02-18 12:27 34.83864 137.42336 29988 ft 377 kts 256°
2026-02-18 12:27 34.82158 137.36313 29997 ft 377 kts 256°
2026-02-18 12:28 34.80413 137.30256 29996 ft 377 kts 256°
2026-02-18 12:28 34.78697 137.24272 30019 ft 377 kts 256°
2026-02-18 12:29 34.76950 137.18213 30025 ft 378 kts 256°
2026-02-18 12:29 34.74351 137.09203 30051 ft 378 kts 256°
2026-02-18 12:30 34.72594 137.03139 30052 ft 378 kts 256°
2026-02-18 12:30 34.70845 136.97109 30055 ft 379 kts 255°
2026-02-18 12:31 34.68555 136.91294 30063 ft 384 kts 249°
2026-02-18 12:31 34.66114 136.85521 30039 ft 384 kts 249°
2026-02-18 12:32 34.63665 136.79757 30030 ft 385 kts 249°
2026-02-18 12:32 34.61196 136.73949 29996 ft 385 kts 249°
2026-02-18 12:33 34.57507 136.65292 29978 ft 384 kts 249°
2026-02-18 12:34 34.55051 136.59537 29975 ft 384 kts 249°
2026-02-18 12:34 34.52586 136.53774 29973 ft 386 kts 248°
2026-02-18 12:35 34.50109 136.47992 29975 ft 387 kts 248°
2026-02-18 12:35 34.47626 136.42207 29554 ft 388 kts 248°
2026-02-18 12:35 34.46384 136.39320 28926 ft 386 kts 248°
2026-02-18 12:36 34.45140 136.36426 28055 ft 388 kts 248°
2026-02-18 12:36 34.43887 136.33508 27121 ft 392 kts 248°
2026-02-18 12:36 34.42620 136.30566 26162 ft 396 kts 248°
2026-02-18 12:36 34.41340 136.27602 25207 ft 399 kts 248°
2026-02-18 12:37 34.40052 136.24617 24217 ft 402 kts 248°
2026-02-18 12:37 34.37498 136.18718 22902 ft 391 kts 249°
2026-02-18 12:37 34.36273 136.15891 23015 ft 373 kts 249°
2026-02-18 12:38 34.35198 136.13011 23038 ft 379 kts 256°
2026-02-18 12:38 34.34523 136.09916 23043 ft 381 kts 262°
2026-02-18 12:38 34.33959 136.06775 23033 ft 382 kts 262°
2026-02-18 12:38 34.33392 136.03636 23035 ft 381 kts 262°
2026-02-18 12:39 34.32826 136.00498 23050 ft 384 kts 262°
2026-02-18 12:39 34.32258 135.97347 23055 ft 383 kts 262°
2026-02-18 12:39 34.31689 135.94185 23046 ft 386 kts 262°
2026-02-18 12:39 34.31114 135.91015 23054 ft 385 kts 262°
2026-02-18 12:40 34.30537 135.87852 23047 ft 384 kts 262°
2026-02-18 12:40 34.29964 135.84683 22860 ft 387 kts 262°
2026-02-18 12:40 34.29389 135.81523 22584 ft 382 kts 262°
2026-02-18 12:40 34.28820 135.78410 22284 ft 379 kts 262°
2026-02-18 12:41 34.28257 135.75317 21905 ft 374 kts 262°
2026-02-18 12:41 34.27136 135.69182 21140 ft 373 kts 262°
2026-02-18 12:41 34.26576 135.66134 20774 ft 371 kts 262°
2026-02-18 12:42 34.26017 135.63086 20169 ft 372 kts 262°
2026-02-18 12:42 34.25467 135.60115 19292 ft 353 kts 262°
2026-02-18 12:42 34.24919 135.57107 18437 ft 367 kts 262°
2026-02-18 12:42 34.24369 135.54111 17549 ft 360 kts 261°
2026-02-18 12:43 34.23835 135.51275 16542 ft 337 kts 262°
2026-02-18 12:43 34.23322 135.48484 15548 ft 349 kts 262°
2026-02-18 12:43 34.22799 135.45602 14570 ft 352 kts 262°
2026-02-18 12:43 34.22260 135.42719 13584 ft 352 kts 262°
2026-02-18 12:44 34.21718 135.39831 12606 ft 352 kts 262°
2026-02-18 12:44 34.21184 135.36953 11623 ft 350 kts 262°
2026-02-18 12:44 34.20658 135.34125 10633 ft 340 kts 262°
2026-02-18 12:44 34.20146 135.31384 9815 ft 327 kts 262°
2026-02-18 12:45 34.19652 135.28745 9055 ft 319 kts 263°
2026-02-18 12:45 34.18679 135.23505 7549 ft 318 kts 262°
2026-02-18 12:45 34.18190 135.20908 6789 ft 316 kts 262°
2026-02-18 12:46 34.17704 135.18325 6044 ft 315 kts 262°
2026-02-18 12:46 34.17292 135.15741 5215 ft 310 kts 270°
2026-02-18 12:46 34.17504 135.13186 4328 ft 305 kts 287°
2026-02-18 12:46 34.18334 135.10928 4266 ft 282 kts 303°
2026-02-18 12:47 34.19535 135.09216 4263 ft 255 kts 319°
2026-02-18 12:47 34.20834 135.07923 4264 ft 230 kts 320°
2026-02-18 12:47 34.22011 135.06752 4259 ft 210 kts 321°
2026-02-18 12:47 34.23130 135.05662 4254 ft 204 kts 321°
2026-02-18 12:48 34.24223 135.04594 4256 ft 201 kts 321°
2026-02-18 12:48 34.25306 135.03546 4261 ft 199 kts 324°
2026-02-18 12:48 34.26606 135.02994 4264 ft 202 kts 352°
2026-02-18 12:48 34.27993 135.03250 4252 ft 211 kts 25°
2026-02-18 12:49 34.29213 135.04417 3879 ft 230 kts 41°
2026-02-18 12:49 34.31244 135.07371 3258 ft 228 kts 47°
2026-02-18 12:49 34.32225 135.08829 2941 ft 219 kts 47°
2026-02-18 12:50 34.33149 135.10208 2655 ft 201 kts 47°
2026-02-18 12:50 34.33977 135.11443 2394 ft 176 kts 46°
2026-02-18 12:50 34.34697 135.12502 2156 ft 153 kts 46°
2026-02-18 12:50 34.35348 135.13471 1965 ft 143 kts 45°
2026-02-18 12:51 34.35960 135.14375 1785 ft 137 kts 46°
2026-02-18 12:51 34.36550 135.15290 1621 ft 138 kts 45°
2026-02-18 12:51 34.37161 135.16212 1444 ft 141 kts 45°
2026-02-18 12:51 34.37785 135.17136 1262 ft 142 kts 44°
2026-02-18 12:52 34.38410 135.18051 1061 ft 139 kts 44°
2026-02-18 12:52 34.39013 135.18934 872 ft 135 kts 44°
2026-02-18 12:52 34.39619 135.19811 688 ft 136 kts 44°
2026-02-18 12:52 34.40224 135.20693 527 ft 136 kts 45°
2026-02-18 12:53 34.40821 135.21578 356 ft 135 kts 46°
2026-02-18 12:53 34.42014 135.23330 32 ft 122 kts 49°
2026-02-18 12:53 34.42415 135.23932 29 ft 67 kts 51°
2026-02-18 12:54 34.42686 135.24337 30 ft 57 kts 50°
2026-02-18 12:54 34.42904 135.24664 25 ft 38 kts 52°
2026-02-18 12:54 34.43063 135.24820 24 ft 22 kts 28°
2026-02-18 12:54 34.43167 135.24873 27 ft 8 kts 22°
2026-02-18 12:55 34.43170 135.24875 22 ft 0 kts 22°
2026-02-18 12:56 34.43181 135.24878 25 ft 4 kts
2026-02-18 12:56 34.43207 135.24873 23 ft 4 kts 341°
2026-02-18 12:56 34.43232 135.24832 29 ft 6 kts 281°
2026-02-18 12:56 34.43198 135.24758 28 ft 17 kts 231°
2026-02-18 12:57 34.43072 135.24557 28 ft 14 kts 252°
2026-02-18 12:57 34.43110 135.24461 26 ft 15 kts 319°
2026-02-18 12:57 34.43156 135.24381 24 ft 11 kts 302°
2026-02-18 12:58 34.43197 135.24331 30 ft 6 kts 320°
2026-02-18 12:58 34.43213 135.24316 26 ft 1 kts 323°
2026-02-18 12:58 34.43219 135.24311 24 ft 1 kts 323°
2026-02-18 12:58 34.43222 135.24309 24 ft 0 kts 323°